Regional Weather Roundup
Issued by NWS

Home | Current Version | Previous Version | Text Only | Print | Product List | Glossary On
Versions: 1 2 3 4 5 6 7 8 9 10 11 12 13 14 15 16 17 18 19 20 21 22 23 24 25 26 27
000
ASUS45 KBOU 160407
RWRCO

WEATHER ROUNDUP FOR COLORADO
NATIONAL WEATHER SERVICE DENVER/BOULDER CO
1000 PM MDT SUN OCT 15 2017

NOTE: "FAIR" INDICATES FEW OR NO CLOUDS BELOW 12000 FEET WITH NO
SIGNIFICANT WEATHER AND/OR OBSTRUCTIONS TO VISIBILITY.

COZ001>005-013-030-031-160500-
...NORTHWEST COLORADO...

CITY           SKY/WX    TMP DP  RH WIND       PRES   REMARKS
CRAIG          FAIR      29  19  66 CALM      30.49S
HAYDEN         FAIR      40  16  37 E9        30.51R
MEEKER         FAIR      35  18  49 NE5       30.50R WCI  31
RABBIT EARS PA FAIR      36  12  38 W8        30.64R
STEAMBOAT SPGS FAIR      37  16  41 CALM      30.52R
WALDEN         FAIR      27  14  59 SE9       30.55R WCI  17
$$

COZ006>008-011-160500-
...WEST CENTRAL VALLEYS...

CITY           SKY/WX    TMP DP  RH WIND       PRES   REMARKS
GRAND JUNCTION FAIR      39  11  31 E3        30.45R
MONTROSE       FAIR      38  17  42 SE8       30.52R
EAGLE          FAIR      37  18  46 E7        30.54R
RIFLE          FAIR      40  18  41 CALM      30.49R
DELTA          FAIR      44  10  25 E6        30.49R
NUCLA          NOT AVBL
$$

COZ017>023-064>068-160500-
...SOUTHWEST COLORADO...

CITY           SKY/WX    TMP DP  RH WIND       PRES   REMARKS
DURANGO        FAIR      40  16  37 N8        30.51R
CORTEZ         FAIR      34  16  47 E7        30.49R WCI  28
PAGOSA SPRINGS FAIR      38  11  33 CALM      30.56S
TELLURIDE      NOT AVBL
WOLF CREEK PAS FAIR      36   1  23 SW9       30.80R
$$

COZ009-010-012-014-032>034-037-058>063-160500-
...CENTRAL COLORADO...

CITY           SKY/WX    TMP DP  RH WIND       PRES   REMARKS
ASPEN          FAIR      34  15  46 S8        30.55R WCI  27
BUENA VISTA    FAIR      41   8  26 W8        30.54R
COPPER MTN     FAIR      37  -6  15 W10       30.71R
BERTHOUD PASS  FAIR      32  21  64 NW33G41   30.68S WCI  17
COTTONWOOD PAS FAIR      50   0  12 W6        30.62S
GUNNISON       FAIR      35  13  40 CALM      30.57R
KREMMLING      FAIR      37  23  56 CALM      30.55R
LEADVILLE      FAIR      33   0  24 NE6       30.61R WCI  28
MONARCH PASS   FAIR      36   1  23 W22       30.82S
SALIDA         NOT AVBL
SUNLIGHT       FAIR      34   1  25 SW8       30.71R WCI  27
WILKERSON PASS FAIR      39  -8  13 W8        30.69S
$$

COZ069>075-160500-
...SAN LUIS VALLEY/SANGRE DE CRISTO MOUNTAINS...

CITY           SKY/WX    TMP DP  RH WIND       PRES   REMARKS
ALAMOSA        FAIR      31  14  49 CALM      30.53R
DEL NORTE      FAIR      38  12  34 W12       30.55S
LA VETA PASS   FAIR      43   0  16 SW15G24   30.74R
SAGUACHE       FAIR      36   9  32 NW8       30.55R
$$

COZ035-036-038>040-160500-
...NORTHERN COLORADO FRONT RANGE...

CITY           SKY/WX    TMP DP  RH WIND       PRES   REMARKS
DENVER INTL AP FAIR      47  22  37 W3        30.41R
DMNS CITY PARK   N/A     42  32  66 E7        30.42R
AURORA         CLEAR     42  27  55 S7        30.43R
FRONT RANGE AP FAIR      45  23  42 SW8       30.41F
ERIE MUNI ARPT FAIR      36  32  84 CALM      30.47S
BOULDER MUN AP FAIR      45  30  57 SW3       30.41S HAZE
CENTENNIAL     FAIR      42  28  57 S8        30.43R
BROOMFIELD     CLEAR     50  27  40 NW6       30.43R
FORT COLLINS   FAIR      47  27  45 N5        30.42R
LONGMONT       NOT AVBL
$$

COZ041-046-047-076>085-087-088-160500-
...PIKES PEAK/PALMER DIVIDE AND SOUTHERN FOOTHILLS...

CITY           SKY/WX    TMP DP  RH WIND       PRES   REMARKS
COLO. SPRINGS  FAIR      47  20  34 CALM      30.48S
A. F. ACADEMY  FAIR      33  20  56 MISG      30.47S
SCHRIEVER AFB  FAIR      45  17  32 MISG      30.47S
CHEYENNE MTN   FAIR      46  16  30 NW5       30.43S
ELLICOTT       FAIR     N/A N/A N/A SE7       30.46S
FALCON         FAIR      37  19  47 W5        30.49F
FORT CARSON    FAIR      42  21  42 NW6       30.45S
LIMON          FAIR      31  25  78 CALM      30.45R
MONUMENT HILL  FAIR      39  19  45 SW12      30.48S
CANON CITY     CLEAR     41  25  52 W7        30.46R
WALSENBURG     NOT AVBL
TRINIDAD       FAIR      45  29  53 W12       30.45R
$$

COZ042>045-048>051-090-091-160500-
...NORTHEAST COLORADO...

CITY           SKY/WX    TMP DP  RH WIND       PRES   REMARKS
GREELEY ARPT   FAIR      36  29  75 NW8       30.41S
AKRON          FAIR      47  21  35 S9        30.40S
BURLINGTON     FAIR      46  28  49 S13       30.42R
WRAY           FAIR      41  28  60 SW6       30.39S
YUMA           NOT AVBL
STERLING       FAIR      39  30  70 S3        30.38R
HOLYOKE        FAIR      41  32  70 SW3       30.39R
FORT MORGAN    FAIR      45  19  36 CALM      30.40S
$$

COZ086-089-092>099-160500-
...SOUTHEAST COLORADO...

CITY           SKY/WX    TMP DP  RH WIND       PRES   REMARKS
PUEBLO         FAIR      43  28  55 W6        30.43R
LA JUNTA       FAIR      43  29  57 N3        30.40R
LAMAR          FAIR      40  28  62 E8        30.39S
SPRINGFIELD      N/A     40  30  67 SW5       30.43R
$$




USA.gov is the U.S. government's official web portal to all federal, state and local government web resources and services.